This is the latest recevied weather packets stored in our database for station/object 4S6DRJ-13. If no packets are shown the sender has not sent any weather packets the latest 1 day(s).
| Time | Temp. | Humidity | Pressure | Rain* | Wind** | Luminosity | Snow |
|---|---|---|---|---|---|---|---|
| 1778141268 | 33.33° C | 66% | 1003.3 hPa | 0 mm | 0.89 m/s, 264° | 1107 W/m² | - |
| 1778141207 | 32.78° C | 66% | 1003.4 hPa | 0 mm | 0.89 m/s, 1° | 1107 W/m² | - |
| 1778141147 | 32.78° C | 65% | 1003.3 hPa | 0 mm | 2.24 m/s, 329° | 1106 W/m² | - |
| 1778141085 | 32.78° C | 67% | 1003.2 hPa | 0 mm | 0.89 m/s, 313° | 1105 W/m² | - |
| 1778141024 | 32.78° C | 66% | 1003.3 hPa | 0 mm | 1.79 m/s, 247° | 1106 W/m² | - |
| 1778140963 | 32.78° C | 66% | 1003.4 hPa | 0 mm | 1.79 m/s, 300° | 1106 W/m² | - |
| 1778140902 | 32.78° C | 66% | 1003.4 hPa | 0 mm | 1.34 m/s, 291° | 1107 W/m² | - |
| 1778140841 | 32.78° C | 67% | 1003.3 hPa | 0 mm | 0.45 m/s, 250° | 1108 W/m² | - |
| 1778140658 | 32.78° C | 65% | 1003.4 hPa | 0 mm | 1.79 m/s, 321° | 1107 W/m² | - |
| 1778140476 | 32.78° C | 65% | 1003.4 hPa | 0 mm | 1.34 m/s, 254° | 1105 W/m² | - |
| 1778140353 | 32.78° C | 65% | 1003.5 hPa | 0 mm | 2.24 m/s, 298° | 1106 W/m² | - |
| 1778140292 | 32.78° C | 65% | 1003.4 hPa | 0 mm | 1.79 m/s, 231° | 1106 W/m² | - |
| 1778140231 | 32.78° C | 65% | 1003.4 hPa | 0 mm | 2.68 m/s, 284° | 1106 W/m² | - |
| 1778140048 | 32.78° C | 65% | 1003.4 hPa | 0 mm | 2.68 m/s, 294° | 1107 W/m² | - |
| 1778139987 | 32.78° C | 66% | 1003.4 hPa | 0 mm | 1.79 m/s, 331° | 1107 W/m² | - |
| 1778139926 | 32.78° C | 66% | 1003.4 hPa | 0 mm | 2.24 m/s, 293° | 1107 W/m² | - |
| 1778139865 | 32.78° C | 66% | 1003.4 hPa | 0 mm | 2.24 m/s, 177° | 1107 W/m² | - |
| 1778139743 | 32.78° C | 65% | 1003.7 hPa | 0 mm | 2.68 m/s, 331° | 1108 W/m² | - |
| 1778139682 | 32.78° C | 65% | 1003.7 hPa | 0 mm | 3.13 m/s, 267° | 1108 W/m² | - |
| 1778139621 | 32.78° C | 65% | 1003.6 hPa | 0 mm | 1.34 m/s, 242° | 1108 W/m² | - |
| 1778139560 | 32.78° C | 65% | 1003.6 hPa | 0 mm | 1.79 m/s, 242° | 1107 W/m² | - |
| 1778139499 | 32.78° C | 66% | 1003.6 hPa | 0 mm | 2.24 m/s, 180° | 1107 W/m² | - |
| 1778139377 | 32.78° C | 65% | 1003.6 hPa | 0 mm | 1.79 m/s, 232° | 1108 W/m² | - |
| 1778139316 | 32.78° C | 66% | 1003.7 hPa | 0 mm | 0.45 m/s, 345° | 1108 W/m² | - |
| 1778139255 | 32.78° C | 66% | 1003.8 hPa | 0 mm | 1.79 m/s, 280° | 1109 W/m² | - |
* Rain latest hour (hover to see other rain measurements)
** Current wind speed in m/s (hover to see current wind gust speed)